Weather History for 16289 - March, 2014

Change the Weather History Date:

Saturday, March 22, 2014

  Actual Average Record
Temperature  
Mean Temperature 58 °F -  
Max Temperature 65 °F 63 °F - ()
Min Temperature 50 °F 46 °F - ()
Degree Days  
Heating Degree Days 8    
Growing Degree Days 8 (Base 50)    
Moisture  
Dew Point 52 °F    
Average Humidity 78    
Maximum Humidity 94    
Minimum Humidity 51    
Precipitation  
Precipitation 0.00 in 0.10 in - ()
Sea Level Pressure  
Sea Level Pressure 30.07 in    
Wind  
Wind Speed 4 mph ()    
Max Wind Speed 12 mph    
Max Gust Speed -    
Visibility 5.8 miles    
Events      
T = Trace of Precipitation, MM = Missing Value Source: Averaged Metar Reports

Daily Weather History Graph

Daily Weather History Graph

Search for Another Location

Airport or City:

Trip Planner

Search our weather history database for the weather conditions in past years. The results will help you decide how hot, cold, wet, or windy it might be!

Date:

Astronomy

Mar. 22, 2014 Rise Set
Actual Time 6:03 AM CET 6:16 PM CET
Civil Twilight 5:35 AM CET 6:44 PM CET
Nautical Twilight 5:03 AM CET 7:16 PM CET
Astronomical Twilight 4:31 AM CET 7:49 PM CET
Moon No Moon Rise 9:29 AM CET (3/22)
Length of Visible Light 13h 08m
Length of Day
12h 13m
Waning Gibbous, 68% of the Moon is Illuminated
Mar 22
Waning Gibbous
Mar 24
Last Quarter
Mar 30
New
Apr 7
First Quarter
Apr 15
Full

Hourly Weather History & Observations

Time (CET) Temp. Dew Point Humidity Pressure Visibility Wind Dir Wind Speed Gust Speed Precip Events Conditions
12:20 AM 55.4 °F 50.0 °F 82% 30.15 in 4.3 mi East 2.3 mph - N/A   Unknown
12:50 AM 53.6 °F 50.0 °F 88% 30.15 in 4.3 mi ENE 1.2 mph - N/A   Unknown
1:00 AM 54 °F 50 °F 81% 30.16 in 4 mi ENE 2.3 mph - -   Mist
1:20 AM 53.6 °F 50.0 °F 88% 30.12 in 4.3 mi Variable 2.3 mph - N/A   Unknown
1:50 AM 53.6 °F 50.0 °F 88% 30.12 in 4.3 mi Calm Calm - N/A   Unknown
2:20 AM 51.8 °F 48.2 °F 88% 30.12 in 4.3 mi Variable 1.2 mph - N/A   Unknown
2:50 AM 51.8 °F 48.2 °F 88% 30.12 in 4.3 mi WSW 3.5 mph - N/A   Unknown
3:20 AM 51.8 °F 50.0 °F 94% 30.12 in 4.3 mi Variable 1.2 mph - N/A   Unknown
3:50 AM 53.6 °F 50.0 °F 88% 30.09 in 4.3 mi Variable 1.2 mph - N/A   Unknown
4:00 AM 54 °F 51 °F 86% 30.12 in 4 mi SSE 2.3 mph - -   Mist
4:20 AM 53.6 °F 50.0 °F 88% 30.09 in 3.7 mi Calm Calm - N/A   Scattered Clouds
4:50 AM 53.6 °F 50.0 °F 88% 30.09 in 3.7 mi Variable 1.2 mph - N/A   Light Drizzle
5:20 AM 53.6 °F 51.8 °F 94% 30.09 in 3.7 mi Variable 1.2 mph - N/A   Scattered Clouds
5:50 AM 51.8 °F 48.2 °F 88% 30.09 in 3.7 mi NE 5.8 mph - N/A   Scattered Clouds
6:20 AM 51.8 °F 50.0 °F 94% 30.09 in 3.7 mi ENE 3.5 mph - N/A   Unknown
6:50 AM 53.6 °F 50.0 °F 88% 30.12 in 3.1 mi ENE 3.5 mph - N/A   Mist
7:00 AM 54 °F 50 °F 82% 30.12 in 3 mi ENE 4.6 mph - -   Mist
7:20 AM 53.6 °F 50.0 °F 88% 30.12 in 2.5 mi ENE 3.5 mph - N/A   Mist
7:50 AM 55.4 °F 51.8 °F 88% 30.12 in 2.5 mi ENE 3.5 mph - N/A   Mist
8:20 AM 59.0 °F 51.8 °F 77% 30.12 in 3.7 mi Variable 2.3 mph - N/A   Unknown
8:50 AM 59.0 °F 51.8 °F 77% 30.12 in 3.7 mi Variable 2.3 mph - N/A   Unknown
9:20 AM 60.8 °F 51.8 °F 72% 30.12 in 3.7 mi South 4.6 mph - N/A   Unknown
9:50 AM 62.6 °F 50.0 °F 63% 30.12 in 5.0 mi SSW 6.9 mph - N/A   Unknown
10:00 AM 62 °F 51 °F 59% 30.13 in 5 mi South 8.1 mph - -   Mist
10:20 AM 62.6 °F 51.8 °F 68% 30.12 in 5.0 mi South 8.1 mph - N/A   Partly Cloudy
10:50 AM 62.6 °F 51.8 °F 68% 30.12 in 6.2 mi SSW 10.4 mph - N/A   Partly Cloudy
11:20 AM 64.4 °F 51.8 °F 64% 30.09 in 6.2 mi SSW 8.1 mph - N/A   Scattered Clouds
11:50 AM 62.6 °F 51.8 °F 68% 30.09 in 6.2 mi SSW 6.9 mph - N/A   Scattered Clouds
12:20 PM 64.4 °F 53.6 °F 68% 30.09 in 6.2 mi SSW 8.1 mph - N/A   Scattered Clouds
12:50 PM 64.4 °F 51.8 °F 64% 30.06 in 6.2 mi South 8.1 mph - N/A   Scattered Clouds
1:00 PM 64 °F 52 °F 56% 30.08 in 9 mi South 8.1 mph - -   Partly Cloudy
1:20 PM 64.4 °F 51.8 °F 64% 30.06 in 6.2 mi SSW 8.1 mph - N/A   Scattered Clouds
1:50 PM 64.4 °F 53.6 °F 68% 30.06 in 6.2 mi South 9.2 mph - N/A   Scattered Clouds
2:20 PM 64.4 °F 51.8 °F 64% 30.04 in 6.2 mi SSW 9.2 mph - N/A   Scattered Clouds
2:50 PM 64.4 °F 50.0 °F 59% 30.04 in 6.2 mi SSW 9.2 mph - N/A   Partly Cloudy
3:20 PM 64.4 °F 51.8 °F 64% 30.04 in 6.2 mi SSW 9.2 mph - N/A   Partly Cloudy
3:50 PM 64.4 °F 51.8 °F 64% 30.04 in 6.2 mi SSW 10.4 mph - N/A   Partly Cloudy
4:00 PM 64 °F 50 °F 51% 30.04 in 16 mi South 11.5 mph - -   Scattered Clouds
4:20 PM 62.6 °F 51.8 °F 68% 30.04 in 6.2 mi SW 10.4 mph - N/A   Partly Cloudy
4:50 PM 60.8 °F 53.6 °F 77% 30.04 in 6.2 mi SSW 10.4 mph - N/A   Scattered Clouds
5:20 PM 60.8 °F 55.4 °F 82% 30.04 in 6.2 mi SSW 8.1 mph - N/A   Mostly Cloudy
5:50 PM 60.8 °F 55.4 °F 82% 30.04 in 6.2 mi SSW 9.2 mph - N/A   Mostly Cloudy
6:20 PM 59.0 °F 55.4 °F 88% 30.04 in 6.2 mi SSW 6.9 mph - N/A   Mostly Cloudy
6:50 PM 59.0 °F 55.4 °F 88% 30.01 in 6.2 mi SSW 4.6 mph - N/A   Mostly Cloudy
7:00 PM 60 °F 55 °F 78% 30.03 in 16 mi South 5.8 mph - -   Mostly Cloudy
7:20 PM 59.0 °F 53.6 °F 82% 30.01 in 6.2 mi South 4.6 mph - N/A   Scattered Clouds
7:50 PM 59.0 °F 53.6 °F 82% 30.04 in 6.2 mi South 3.5 mph - N/A   Scattered Clouds
8:20 PM 59.0 °F 53.6 °F 82% 30.01 in 6.2 mi SSE 3.5 mph - N/A   Scattered Clouds
8:50 PM 59.0 °F 53.6 °F 82% 30.01 in 6.2 mi SSE 3.5 mph - N/A   Partly Cloudy
9:20 PM 59.0 °F 53.6 °F 82% 30.01 in 6.2 mi South 2.3 mph - N/A   Scattered Clouds
9:50 PM 59.0 °F 53.6 °F 82% 30.01 in 6.2 mi Variable 1.2 mph - N/A   Scattered Clouds
10:00 PM 59 °F 53 °F 75% 30.02 in 16 mi SSE 2.3 mph - -   Partly Cloudy
10:20 PM 59.0 °F 53.6 °F 82% 30.01 in 6.2 mi Variable 2.3 mph - N/A   Partly Cloudy
10:50 PM 57.2 °F 53.6 °F 88% 30.01 in 6.2 mi South 3.5 mph - N/A   Partly Cloudy
11:20 PM 57.2 °F 53.6 °F 88% 30.01 in 6.2 mi SSW 3.5 mph - N/A   Partly Cloudy
11:50 PM 57.2 °F 53.6 °F 88% 29.98 in 6.2 mi Calm Calm - N/A   Partly Cloudy